• In Hungary
  • List of Countries
  • For 7 days
  • Water Temperature
  • Satellite Maps
  • Weather Map
  • News
  • Weather Widgets
  • user-avatar
    Login

    Hourly Weather Kugenerka

    Today, 24 May, Thursday

    Time Temperature Precipitation Wind Pressure Humidity
    00:00 +15°C° 0.2 mm 2 mps 753 mmHg 90%
    01:00 +15°C° 0.1 mm 2 mps 752 mmHg 91%
    02:00 +15°C° 0.1 mm 2 mps 752 mmHg 93%
    03:00 +14°C° 0.1 mm 2 mps 752 mmHg 95%
    04:00 +15°C° 0 mm 2 mps 752 mmHg 91%
    05:00 +15°C° 0 mm 2 mps 752 mmHg 88%
    06:00 +16°C° 0 mm 2 mps 752 mmHg 85%
    07:00 +17°C° 0 mm 2 mps 752 mmHg 79%
    08:00 +18°C° 0 mm 2 mps 752 mmHg 73%
    09:00 +19°C° 0 mm 2 mps 752 mmHg 67%
    10:00 +20°C° 0 mm 3 mps 752 mmHg 62%
    11:00 +21°C° 0 mm 3 mps 752 mmHg 56%
    12:00 +22°C° 0 mm 3 mps 752 mmHg 51%
    13:00 +22°C° 0 mm 3 mps 752 mmHg 49%
    14:00 +24°C° 0 mm 3 mps 752 mmHg 47%
    15:00 +24°C° 0 mm 3 mps 751 mmHg 45%
    16:00 +22°C° 0.3 mm 3 mps 751 mmHg 52%
    17:00 +21°C° 0.3 mm 3 mps 751 mmHg 59%
    18:00 +20°C° 0.3 mm 3 mps 751 mmHg 65%
    19:00 +18°C° 0.1 mm 3 mps 751 mmHg 70%
    20:00 +17°C° 0.1 mm 3 mps 751 mmHg 75%
    21:00 +14°C° 0.1 mm 3 mps 751 mmHg 80%
    22:00 +13°C° 0 mm 3 mps 751 mmHg 77%
    23:00 +12°C° 0 mm 3 mps 751 mmHg 74%

    Tomorrow, 25 May, Friday

    Time Temperature Precipitation Wind Pressure Humidity
    00:00 +11°C° 0 mm 4 mps 751 mmHg 71%
    01:00 +10°C° 0 mm 4 mps 752 mmHg 67%
    02:00 +8°C° 0 mm 4 mps 752 mmHg 64%
    03:00 +7°C° 0 mm 5 mps 752 mmHg 60%
    04:00 +7°C° 0 mm 5 mps 753 mmHg 60%
    05:00 +7°C° 0 mm 5 mps 753 mmHg 59%
    06:00 +7°C° 0 mm 6 mps 753 mmHg 58%
    07:00 +8°C° 0 mm 6 mps 753 mmHg 54%
    08:00 +9°C° 0 mm 6 mps 754 mmHg 49%
    09:00 +10°C° 0 mm 6 mps 754 mmHg 44%
    10:00 +10°C° 0 mm 7 mps 754 mmHg 42%
    11:00 +11°C° 0 mm 7 mps 754 mmHg 40%
    12:00 +11°C° 0 mm 7 mps 754 mmHg 37%
    13:00 +12°C° 0 mm 7 mps 755 mmHg 37%
    14:00 +12°C° 0 mm 7 mps 755 mmHg 37%
    15:00 +13°C° 0 mm 6 mps 755 mmHg 36%
    16:00 +11°C° 0 mm 6 mps 755 mmHg 39%
    17:00 +12°C° 0 mm 5 mps 756 mmHg 41%
    18:00 +10°C° 0 mm 5 mps 756 mmHg 44%
    19:00 +10°C° 0 mm 4 mps 756 mmHg 48%
    20:00 +7°C° 0 mm 4 mps 757 mmHg 52%
    21:00 +7°C° 0 mm 3 mps 757 mmHg 56%
    22:00 +5°C° 0 mm 3 mps 758 mmHg 56%
    23:00 +5°C° 0 mm 3 mps 758 mmHg 56%

    Day after tomorrow, 26 May, Saturday

    Time Temperature Precipitation Wind Pressure Humidity
    00:00 +4°C° 0 mm 3 mps 759 mmHg 56%
    01:00 +3°C° 0 mm 3 mps 759 mmHg 58%
    02:00 +3°C° 0 mm 3 mps 760 mmHg 60%
    03:00 +3°C° 0 mm 2 mps 760 mmHg 61%
    04:00 +4°C° 0 mm 2 mps 761 mmHg 58%
    05:00 +5°C° 0 mm 3 mps 761 mmHg 55%
    06:00 +7°C° 0 mm 3 mps 761 mmHg 52%
    07:00 +9°C° 0 mm 3 mps 762 mmHg 47%
    08:00 +10°C° 0 mm 3 mps 762 mmHg 42%
    09:00 +12°C° 0 mm 3 mps 762 mmHg 36%
    10:00 +13°C° 0 mm 3 mps 762 mmHg 36%
    11:00 +14°C° 0 mm 3 mps 762 mmHg 35%
    12:00 +16°C° 0 mm 3 mps 762 mmHg 34%
    13:00 +17°C° 0 mm 3 mps 761 mmHg 35%
    14:00 +17°C° 0 mm 4 mps 761 mmHg 35%
    15:00 +18°C° 0 mm 4 mps 761 mmHg 36%
    16:00 +18°C° 0 mm 3 mps 760 mmHg 40%
    17:00 +18°C° 0 mm 3 mps 760 mmHg 44%
    18:00 +18°C° 0 mm 2 mps 759 mmHg 48%
    19:00 +16°C° 0 mm 2 mps 759 mmHg 52%
    20:00 +14°C° 0 mm 3 mps 759 mmHg 57%
    21:00 +12°C° 0 mm 3 mps 759 mmHg 61%
    22:00 +12°C° 0 mm 3 mps 759 mmHg 61%
    23:00 +13°C° 0 mm 4 mps 759 mmHg 60%

    27 May, Sunday

    Time Temperature Precipitation Wind Pressure Humidity
    00:00 +14°C° 0 mm 4 mps 758 mmHg 59%
    01:00 +13°C° 0 mm 4 mps 758 mmHg 62%
    02:00 +13°C° 0 mm 4 mps 758 mmHg 66%
    03:00 +13°C° 0 mm 4 mps 757 mmHg 69%
    04:00 +13°C° 0 mm 4 mps 757 mmHg 69%
    05:00 +14°C° 0 mm 5 mps 757 mmHg 68%
    06:00 +14°C° 0 mm 5 mps 757 mmHg 68%
    07:00 +16°C° 0 mm 5 mps 756 mmHg 63%
    08:00 +19°C° 0 mm 5 mps 756 mmHg 59%
    09:00 +21°C° 0 mm 6 mps 755 mmHg 54%
    10:00 +22°C° 0 mm 6 mps 755 mmHg 50%
    11:00 +23°C° 0 mm 7 mps 754 mmHg 46%
    12:00 +24°C° 0 mm 7 mps 753 mmHg 42%
    13:00 +24°C° 0 mm 7 mps 753 mmHg 42%
    14:00 +24°C° 0 mm 7 mps 752 mmHg 42%
    15:00 +24°C° 0 mm 7 mps 752 mmHg 43%
    16:00 +23°C° 0.1 mm 7 mps 751 mmHg 47%
    17:00 +22°C° 0.1 mm 6 mps 751 mmHg 51%
    18:00 +21°C° 0.1 mm 6 mps 751 mmHg 56%
    19:00 +17°C° 0.5 mm 5 mps 751 mmHg 67%
    20:00 +15°C° 0.5 mm 5 mps 751 mmHg 79%
    21:00 +13°C° 0.5 mm 4 mps 751 mmHg 90%
    22:00 +12°C° 0.2 mm 4 mps 751 mmHg 90%
    23:00 +11°C° 0.2 mm 4 mps 751 mmHg 91%

    28 May, Monday

    Time Temperature Precipitation Wind Pressure Humidity
    00:00 +11°C° 0.2 mm 4 mps 752 mmHg 91%
    01:00 +10°C° 0 mm 4 mps 752 mmHg 91%
    02:00 +8°C° 0 mm 4 mps 752 mmHg 91%
    03:00 +7°C° 0 mm 4 mps 753 mmHg 90%
    04:00 +7°C° 0 mm 4 mps 753 mmHg 85%
    05:00 +7°C° 0 mm 4 mps 753 mmHg 79%
    06:00 +8°C° 0 mm 5 mps 754 mmHg 73%
    07:00 +8°C° 0 mm 5 mps 754 mmHg 64%
    08:00 +9°C° 0 mm 6 mps 754 mmHg 55%
    09:00 +10°C° 0 mm 6 mps 754 mmHg 46%
    10:00 +11°C° 0 mm 7 mps 754 mmHg 42%
    11:00 +11°C° 0 mm 7 mps 754 mmHg 39%
    12:00 +12°C° 0 mm 7 mps 754 mmHg 36%
    13:00 +12°C° 0 mm 7 mps 754 mmHg 37%
    14:00 +12°C° 0 mm 7 mps 754 mmHg 37%
    15:00 +12°C° 0 mm 7 mps 754 mmHg 38%
    16:00 +13°C° 0 mm 6 mps 754 mmHg 40%
    17:00 +11°C° 0 mm 6 mps 754 mmHg 43%
    18:00 +12°C° 0 mm 5 mps 754 mmHg 46%
    19:00 +10°C° 0 mm 4 mps 755 mmHg 50%
    20:00 +9°C° 0 mm 3 mps 755 mmHg 55%
    21:00 +7°C° 0 mm 2 mps 755 mmHg 60%
    22:00 +7°C° 0 mm 2 mps 754 mmHg 61%
    23:00 +7°C° 0 mm 2 mps 754 mmHg 63%

    29 May, Tuesday

    Time Temperature Precipitation Wind Pressure Humidity
    00:00 +6°C° 0 mm 2 mps 754 mmHg 65%
    01:00 +6°C° 0 mm 2 mps 753 mmHg 66%
    02:00 +6°C° 0 mm 2 mps 753 mmHg 68%
    03:00 +6°C° 0 mm 2 mps 752 mmHg 69%
    04:00 +7°C° 0.2 mm 3 mps 752 mmHg 74%
    05:00 +8°C° 0.2 mm 3 mps 751 mmHg 79%
    06:00 +7°C° 0.2 mm 4 mps 751 mmHg 85%
    07:00 +9°C° 0 mm 5 mps 751 mmHg 75%
    08:00 +11°C° 0 mm 6 mps 751 mmHg 66%
    09:00 +13°C° 0 mm 8 mps 751 mmHg 56%
    10:00 +14°C° 0 mm 7 mps 751 mmHg 55%
    11:00 +14°C° 0 mm 7 mps 750 mmHg 53%
    12:00 +14°C° 0 mm 7 mps 750 mmHg 51%
    13:00 +15°C° 0 mm 7 mps 750 mmHg 50%
    14:00 +16°C° 0 mm 6 mps 750 mmHg 50%
    15:00 +16°C° 0 mm 6 mps 750 mmHg 49%
    16:00 +16°C° 0 mm 5 mps 750 mmHg 51%
    17:00 +17°C° 0 mm 4 mps 749 mmHg 53%
    18:00 +17°C° 0 mm 2 mps 749 mmHg 55%
    19:00 +16°C° 0 mm 3 mps 748 mmHg 58%
    20:00 +15°C° 0 mm 4 mps 747 mmHg 60%
    21:00 +14°C° 0 mm 5 mps 746 mmHg 62%
    22:00 +14°C° 0.1 mm 5 mps 745 mmHg 68%
    23:00 +14°C° 0.1 mm 6 mps 745 mmHg 74%
    Show more